TimeAKST,TemperatureF,Dew PointF,Humidity,Sea Level PressureIn,VisibilityMPH,Wind Direction,Wind SpeedMPH,Gust SpeedMPH,PrecipitationIn,Events,Conditions,WindDirDegrees,DateUTC
12:54 AM,36.0,33.1,89,29.37,10.0,WNW,12.7,-,N/A,,Overcast,290,2012-11-05 09:54:00
1:54 AM,36.0,33.1,89,29.43,10.0,WNW,10.4,-,0.00,Rain,Light Rain,300,2012-11-05 10:54:00
2:54 AM,35.1,34.0,96,29.48,9.0,WNW,5.8,-,0.00,Rain,Light Rain,290,2012-11-05 11:54:00
3:54 AM,35.1,34.0,96,29.52,7.0,WNW,4.6,-,0.02,Rain,Light Rain,290,2012-11-05 12:54:00
4:11 AM,35.6,33.8,93,29.53,8.0,WNW,8.1,-,0.01,Rain,Light Rain,300,2012-11-05 13:11:00
4:31 AM,33.8,33.8,100,29.54,8.0,WNW,9.2,-,0.02,Rain,Light Rain,290,2012-11-05 13:31:00
4:54 AM,34.0,33.1,96,29.57,7.0,WNW,9.2,-,0.04,Rain,Light Rain,290,2012-11-05 13:54:00
5:54 AM,33.1,32.0,96,29.61,7.0,NW,5.8,-,0.04,Rain,Light Rain,310,2012-11-05 14:54:00
6:09 AM,35.6,33.8,93,29.61,8.0,WNW,10.4,-,0.01,Rain,Light Rain,290,2012-11-05 15:09:00
6:54 AM,34.0,33.1,96,29.64,9.0,West,9.2,-,0.06,Rain,Light Rain,280,2012-11-05 15:54:00
7:54 AM,39.0,37.0,93,29.67,10.0,East,9.2,-,0.02,Rain,Light Rain,80,2012-11-05 16:54:00
8:54 AM,41.0,39.0,93,29.70,9.0,ESE,11.5,18.4,0.00,Rain,Light Rain,110,2012-11-05 17:54:00
9:45 AM,41.0,39.2,93,29.72,9.0,East,13.8,24.2,0.01,Rain,Light Rain,100,2012-11-05 18:45:00
9:52 AM,41.0,39.2,93,29.72,9.0,East,13.8,23.0,0.01,Rain,Light Rain,80,2012-11-05 18:52:00
9:54 AM,41.0,39.0,93,29.73,9.0,East,15.0,25.3,0.01,Rain,Light Rain,90,2012-11-05 18:54:00
10:54 AM,42.1,39.0,89,29.76,10.0,ESE,17.3,28.8,0.01,Rain,Light Rain,110,2012-11-05 19:54:00
11:54 AM,42.1,39.0,89,29.79,9.0,East,15.0,28.8,0.00,Rain,Light Rain,90,2012-11-05 20:54:00
12:54 PM,41.0,39.0,93,29.80,8.0,ESE,18.4,25.3,0.01,Rain,Light Rain,110,2012-11-05 21:54:00
1:31 PM,41.0,39.2,93,29.82,7.0,ESE,17.3,29.9,0.01,Rain,Light Rain,110,2012-11-05 22:31:00
1:38 PM,41.0,39.2,93,29.82,6.0,East,15.0,28.8,0.01,Rain,Light Rain,100,2012-11-05 22:38:00
1:54 PM,41.0,37.9,89,29.84,5.0,ESE,16.1,27.6,0.01,Rain,Light Rain,110,2012-11-05 22:54:00
2:21 PM,41.0,39.2,93,29.83,6.0,East,17.3,29.9,0.01,Rain,Light Rain,100,2012-11-05 23:21:00
2:54 PM,41.0,37.9,89,29.85,6.0,ESE,18.4,31.1,0.02,Rain,Light Rain,110,2012-11-05 23:54:00
3:16 PM,41.0,37.4,87,29.83,10.0,ESE,15.0,27.6,0.00,Rain,Light Rain,110,2012-11-06 00:16:00
3:45 PM,41.0,37.4,87,29.86,10.0,ESE,12.7,24.2,0.01,,Overcast,110,2012-11-06 00:45:00
3:54 PM,41.0,37.0,86,29.87,10.0,ESE,16.1,27.6,0.01,Rain,Light Rain,110,2012-11-06 00:54:00
4:54 PM,39.9,37.0,89,29.90,10.0,ESE,17.3,27.6,0.00,Rain,Light Rain,110,2012-11-06 01:54:00
5:54 PM,39.9,37.0,89,29.91,10.0,East,12.7,25.3,0.01,Rain,Light Rain,100,2012-11-06 02:54:00
6:52 PM,39.2,37.4,93,29.91,10.0,East,15.0,21.9,0.00,Rain,Light Rain,80,2012-11-06 03:52:00
6:54 PM,39.9,37.9,93,29.92,10.0,East,15.0,21.9,0.00,Rain,Light Rain,90,2012-11-06 03:54:00
7:09 PM,39.2,37.4,93,29.92,10.0,East,11.5,26.5,0.00,Rain,Light Rain,100,2012-11-06 04:09:00
7:43 PM,39.2,37.4,93,29.92,10.0,East,17.3,32.2,0.00,,Overcast,80,2012-11-06 04:43:00
7:54 PM,39.9,37.9,93,29.94,10.0,East,12.7,21.9,0.00,Rain,Light Rain,100,2012-11-06 04:54:00
8:07 PM,39.2,37.4,93,29.93,10.0,East,13.8,24.2,0.00,Rain,Light Rain,80,2012-11-06 05:07:00
8:33 PM,39.2,37.4,93,29.93,10.0,ENE,12.7,25.3,0.00,Rain,Light Rain,70,2012-11-06 05:33:00
8:54 PM,39.9,37.0,89,29.94,10.0,ENE,17.3,25.3,0.00,,Mostly Cloudy,70,2012-11-06 05:54:00
9:17 PM,39.2,37.4,93,29.93,10.0,East,13.8,27.6,N/A,,Scattered Clouds,80,2012-11-06 06:17:00
9:54 PM,41.0,37.0,86,29.94,10.0,ENE,12.7,20.7,N/A,,Overcast,70,2012-11-06 06:54:00
10:54 PM,41.0,36.0,82,29.92,10.0,ENE,8.1,21.9,0.00,Rain,Light Rain,60,2012-11-06 07:54:00
11:07 PM,41.0,35.6,81,29.91,10.0,ENE,11.5,19.6,0.00,,Overcast,60,2012-11-06 08:07:00
11:17 PM,41.0,35.6,81,29.90,10.0,NE,8.1,-,0.00,,Overcast,50,2012-11-06 08:17:00
11:32 PM,41.0,35.6,81,29.90,10.0,East,8.1,-,0.00,,Overcast,80,2012-11-06 08:32:00
11:42 PM,41.0,35.6,81,29.90,10.0,ENE,6.9,-,0.00,,Overcast,70,2012-11-06 08:42:00
11:54 PM,41.0,36.0,82,29.91,10.0,Variable,5.8,-,0.00,,Overcast,0,2012-11-06 08:54:00